Location: Radomski Observatory
(40.2854°N, 79.5145°W)
Time: 13:08:51
(UTC-04:00)

Cosmos 1072 Rocket - Visible Passes

Search period start: 31 October 2014 00:00
Search period end: 09 November 2014 23:00
Orbit: 949 x 1009 km, 82.9° (Epoch: 30 October)

Date Brightness Start Highest point End Pass type
(mag) Time Alt. Az. Time Alt. Az. Time Alt. Az.
31 Oct 7.1 03:34:59 13° NNE 03:34:59 13° NNE 03:35:36 10° NNE visible
31 Oct 6.3 05:19:46 17° NNW 05:19:46 17° NNW 05:21:18 10° N visible
01 Nov 6.9 04:01:49 14° NNE 04:01:49 14° NNE 04:02:32 10° NNE visible
01 Nov 6.6 05:46:35 11° NNW 05:46:35 11° NNW 05:46:56 10° NNW visible
02 Nov 6.8 03:28:34 13° N 03:28:34 13° N 03:29:04 10° N visible
